WA5GP Weather Reports


time (UTC)temp
F
wind
direction
speed
knots
gust
knots
rain 1hr
in
rain 24hr
in
rain mn
in
humidity
%
barometer
mb
20260507141650 56 116 0.0 4.3 0.00 0.00 0.00 86 1015.1
20260507140027 54 50 0.0 0.9 0.00 0.00 0.00 90 1015.1
20260507134524 52 23 0.0 0.9 0.00 0.00 0.00 91 1015.2
20260507133027 50 125 0.0 0.9 0.00 0.00 0.00 91 1015.4
20260507131534 49 360 0.0 0.9 0.00 0.00 0.00 92 1015.3
20260507130009 47 350 0.0 0.0 0.00 0.00 0.00 95 1015.0
20260507124511 45 350 0.0 0.9 0.00 0.00 0.00 95 1015.0
20260507123010 43 347 0.0 0.9 0.00 0.00 0.00 95 1015.0
20260507121511 43 349 0.0 0.9 0.00 0.00 0.00 95 1014.8
20260507114615 42 349 0.0 0.9 0.00 0.00 0.00 95 1014.5
20260507113104 42 316 0.0 1.7 0.00 0.00 0.00 95 1014.4
20260507111507 42 136 0.0 0.0 0.00 0.00 0.00 95 1014.3
20260507110049 43 136 0.0 0.0 0.00 0.00 0.00 95 1014.4
20260507104553 43 140 0.0 0.9 0.00 0.00 0.00 95 1014.7
20260507103051 43 6 0.0 0.9 0.00 0.00 0.00 94 1014.5
20260507101547 44 6 0.0 0.0 0.00 0.00 0.00 94 1014.5
20260507100033 45 6 0.0 0.9 0.00 0.00 0.00 94 1014.5
20260507094520 46 6 0.0 0.9 0.00 0.00 0.00 94 1014.2
20260507093019 46 6 0.0 0.9 0.00 0.00 0.00 94 1013.8
20260507091516 46 6 0.0 0.0 0.00 0.00 0.00 93 1013.5
20260507090007 47 6 0.0 0.9 0.00 0.00 0.00 92 1013.1
20260507084604 48 15 0.0 0.0 0.00 0.00 0.00 93 1013.0
20260507083100 48 15 0.0 0.0 0.00 0.00 0.00 92 1013.0
20260507081603 48 15 0.0 0.0 0.00 0.00 0.00 91 1012.8
20260507080037 49 15 0.0 0.0 0.00 0.00 0.00 90 1012.7
20260507074551 50 15 0.0 0.9 0.00 0.00 0.00 90 1012.5
20260507073031 50 15 0.9 2.6 0.00 0.00 0.00 89 1012.6
20260507071536 51 33 0.0 0.9 0.00 0.00 0.00 89 1012.4
20260507070021 51 68 0.0 0.9 0.00 0.00 0.00 88 1012.6
20260507064521 51 17 0.0 0.9 0.00 0.00 0.00 87 1012.5
20260507063023 52 42 0.0 2.6 0.00 0.00 0.00 87 1012.2
20260507061517 52 41 0.0 0.9 0.00 0.00 0.00 87 1012.1
20260507060110 52 58 0.0 0.9 0.00 0.00 0.00 87 1012.0
20260507054639 52 47 0.0 1.7 0.00 0.00 0.00 86 1011.8
20260507053105 52 51 0.0 0.9 0.00 0.00 0.00 85 1011.7
20260507051604 52 51 0.0 0.9 0.00 0.00 0.00 85 1011.4
20260507050043 52 53 0.0 0.9 0.00 0.00 0.00 87 1011.3
20260507044549 52 35 0.0 1.7 0.00 0.00 0.00 87 1011.4
20260507043047 53 93 0.0 2.6 0.00 0.00 0.00 87 1011.5
20260507041556 53 87 0.0 1.7 0.00 0.00 0.00 86 1011.5
20260507040027 53 79 0.0 2.6 0.00 0.00 0.00 85 1011.4
20260507034535 53 94 0.0 1.7 0.00 0.00 0.00 84 1011.2
20260507033045 54 85 0.0 2.6 0.00 0.00 0.00 84 1010.9
20260507031551 54 80 0.9 3.5 0.00 0.00 0.00 83 1010.6
20260507030022 54 91 0.9 2.6 0.00 0.00 0.00 83 1010.6
20260507024524 54 93 0.0 0.0 0.00 0.00 0.00 82 1010.5
20260507023033 55 84 0.0 1.7 0.00 0.00 0.00 81 1010.4
20260507021534 56 85 0.9 2.6 0.00 0.00 0.00 80 1010.2
20260507020016 57 87 0.9 2.6 0.00 0.00 0.00 78 1010.1
20260507014528 58 85 1.7 2.6 0.00 0.00 0.00 76 1009.9
20260507013022 59 86 0.9 3.5 0.00 0.00 0.00 73 1009.7
20260507011528 62 65 0.0 2.6 0.00 0.00 0.00 69 1009.4
20260507010015 63 63 0.0 0.9 0.00 0.00 0.00 66 1009.1
20260507004521 63 58 0.0 2.6 0.00 0.00 0.00 67 1009.1
20260507003030 63 53 0.0 4.3 0.00 0.00 0.00 66 1009.1
20260507001537 63 55 0.9 5.2 0.00 0.00 0.00 65 1009.0
20260507000031 64 68 0.9 6.1 0.00 0.00 0.00 64 1008.9
20260506234521 63 19 1.7 5.2 0.00 0.00 0.00 65 1008.7
20260506233024 62 31 1.7 7.0 0.00 0.00 0.00 66 1008.5
20260506231528 63 342 4.3 8.7 0.00 0.00 0.00 66 1008.3
20260506230007 62 23 1.7 11.3 0.00 0.00 0.00 67 1008.4
20260506224511 62 30 1.7 11.3 0.00 0.00 0.00 67 1008.3
20260506223013 62 15 2.6 10.4 0.00 0.00 0.00 67 1008.2
20260506221525 62 34 4.3 12.2 0.00 0.00 0.00 66 1008.1
20260506220018 63 58 3.5 10.4 0.00 0.00 0.00 66 1007.8
20260506214514 64 345 5.2 8.7 0.00 0.00 0.00 62 1007.9
20260506213016 64 16 5.2 13.9 0.00 0.00 0.00 64 1007.9
20260506211518 64 22 7.0 13.9 0.00 0.00 0.00 65 1007.9
20260506210007 65 9 7.8 13.0 0.00 0.00 0.00 64 1007.9
20260506204510 65 91 3.5 10.4 0.00 0.00 0.00 63 1008.0
20260506203011 66 30 3.5 7.8 0.00 0.00 0.00 62 1007.9
20260506201518 65 55 0.9 13.0 0.00 0.00 0.00 64 1008.1
20260506200003 64 15 2.6 7.8 0.00 0.00 0.00 66 1008.4
20260506194507 64 136 1.7 8.7 0.00 0.00 0.00 66 1008.3
20260506193006 64 110 1.7 8.7 0.00 0.00 0.00 65 1008.1
20260506191509 64 357 4.3 8.7 0.00 0.00 0.00 63 1008.3
20260506190101 64 137 1.7 7.8 0.00 0.00 0.00 65 1008.5
20260506184556 63 30 3.5 12.2 0.00 0.00 0.00 67 1008.6
20260506183058 63 343 1.7 6.1 0.00 0.00 0.00 64 1008.6
20260506181501 62 18 4.3 9.6 0.00 0.00 0.00 66 1008.6
20260506180058 60 8 4.3 13.0 0.00 0.00 0.00 69 1008.7
20260506174552 60 34 3.5 11.3 0.00 0.00 0.00 68 1008.7
20260506173055 59 48 1.7 7.8 0.00 0.00 0.00 69 1009.2
20260506171601 58 49 4.3 13.0 0.00 0.00 0.00 70 1009.1
20260506170043 59 290 0.9 11.3 0.00 0.00 0.00 70 1008.7
20260506164538 57 351 6.1 11.3 0.00 0.00 0.00 70 1009.1
20260506163057 57 20 5.2 11.3 0.00 0.00 0.00 70 1009.2
20260506161541 57 352 4.3 9.6 0.00 0.00 0.00 70 1008.8
20260506160021 56 32 7.8 18.2 0.00 0.00 0.00 70 1008.1
20260506154513 55 2 6.1 17.4 0.00 0.00 0.00 71 1008.1
20260506153010 54 27 6.1 15.6 0.00 0.00 0.00 74 1008.3
20260506151518 54 36 3.5 10.4 0.00 0.00 0.00 76 1009.0
20260506150009 52 49 1.7 3.5 0.00 0.00 0.00 76 1010.0
20260506144523 52 46 0.0 5.2 0.00 0.00 0.00 77 1010.5
20260506143020 52 28 2.6 7.0 0.00 0.00 0.00 77 1010.1